STARLINK-4650 (53611 NORAD) Tracking and Keplerian Element Data

This shows tracking and keplerian element data for the satellite.

Feedback or suggestion? Click here.




ElementValue
Catalog53611
NameSTARLINK-4650
Epoch Orbit1323
Epoch Day325.25001157
Epoch Year2022
RAAN241.2796
Inclination53.2168
Eccentricity0.0001853
Argument of Perigee50.7635
Mean Anonmoly260.1785
Mean Motion15.08832683
Decay Rate6.1E-07
L11 53611U 22104Z 22325.25001157 .00000061 00000+0 21950-4 0 9997
L22 53611 53.2168 241.2796 0001853 50.7635 260.1785 15.08832683 13239



Live tracking and technical data element details for STARLINK-4650 (NORAD 53611). STARLINK-4650 can be tracked NOW for your location showing map with azimuth and elevation plus other details from your city location.







IsCatalogInMostPopularTable: catalog: 53611, numindb: 1
Update: records affected: 1



GetName: 53611 STARLINK-4650

Hit Count: updated at: Thu, 08 Dec 2022 19:56:28 GMT